Location: Fernhill
(41.0167°S, 175.6333°E)
Time: 14:32:19
(UTC+00:00)

Meteor 2-6 Rocket - Pass Details

Date: 27 February 2026
Orbit: 804 x 913 km, 81.3° (Epoch: 7 March)

Event Time Altitude Azimuth Distance (km) Brightness Sun altitude
Exits shadow 09:30:43 19° 336° (NNW) 1,997 6.0 -25.8°
Maximum altitude 09:34:58 63° 258° (WSW) 1,009 4.7 -26.4°
Drops below altitude 10° 09:40:57 10° 177° (S) 2,631 7.2 -27.2°
Sets 09:43:29 0° 173° (S) 3,584 7.9 -27.6°
